Location: Six Mile Lake
(44.9000°N, 79.7170°W)
Time: 12:53:10
(UTC-04:00)

EO-79 - Pass Details

Date: 28 June 2022
Orbit: 588 x 603 km, 98.0° (Epoch: 18 August)

Event Time Altitude Azimuth Distance (km) Brightness Sun altitude
Rises 04:29:30 0° 354° (N) 2,852 ? -9.6°
Reaches altitude 10° 04:32:37 10° 329° (NNW) 1,948 ? -9.2°
Maximum altitude 04:34:44 14° 299° (WNW) 1,715 ? -8.9°
Drops below altitude 10° 04:36:51 10° 269° (W) 1,945 ? -8.7°
Enters shadow 04:37:57 - 257° (WSW) 2,214 ? -8.5°
